[[{"header":{"parameterUnit":"m.s-1","parameterCategory":1,"la1":30.2991,"la2":30.254,"lo1":-89.0895,"lo2":-89.0444,"dy":0.0017,"dx":0.0017,"nx":28,"ny":28,"refTime":"2025-04-04T09:00:00:Z","depth":0,"parameterNumber":2,"parameterNumberName":"U-component_of_WINDS"},"data":[0,0,0,0,0,0,0,0,0,0,0,0,0,0,0,0,0,0,0,0,0,0,0,0,0,0,0,0,0,0,0,0,0,0,0,0,0,0,0,0,0,0,0,0,0,0,0,0,0,0,0,0,0,0,0,0,0,0,-3.7236,-3.7238,0,-3.7374,-3.7375,-3.7377,-3.7417,-3.7416,-3.7415,-3.7415,-3.7556,-3.756,-3.7565,0,0,0,0,0,0,0,0,0,0,0,0,0,-3.701,-3.7014,-3.7236,-3.7238,-3.724,-3.7373,-3.7375,-3.7377,-3.7417,-3.7416,-3.7415,-3.7414,-3.7555,-3.756,-3.7565,0,0,0,0,0,0,0,0,0,0,0,0,0,-3.7124,-3.7015,-3.7236,-3.7276,-3.728,-3.7373,-3.7375,-3.7378,-3.7417,-3.7416,-3.7415,-3.7414,-3.7553,-3.7559,-3.7566,-3.7629,0,0,-3.7586,-3.7589,0,0,0,0,0,0,0,0,-3.7117,-3.7132,-3.7268,-3.7273,-3.7279,-3.7377,-3.7347,-3.7462,-3.7417,-3.7365,-3.7415,-3.7413,-3.7497,-3.7509,-3.7537,-3.7636,-3.7642,-3.7587,-3.7591,-3.7594,-3.7596,0,0,0,0,0,0,0,-3.711,-3.7127,-3.7291,-3.727,-3.7276,-3.7287,-3.7302,-3.7369,-3.7436,-3.737,-3.7373,-3.7389,-3.75,-3.753,-3.754,-3.7644,-3.7587,-3.7593,-3.7597,-3.7599,-3.7802,-3.7803,0,0,0,0,0,0,-3.7095,-3.712,-3.7286,-3.7295,-3.7194,-3.7292,-3.7309,-3.7346,-3.7435,-3.7448,-3.7389,-3.739,-3.7519,-3.7533,-3.7545,-3.7625,-3.7594,-3.76,-3.7604,-3.7801,-3.7802,-3.7804,0,0,0,0,0,0,-3.709,-3.7109,-3.7281,-3.7208,-3.7231,-3.7297,-3.7339,-3.735,-3.738,-3.745,-3.7462,-3.7408,-3.7519,-3.7536,-3.7608,-3.763,-3.7603,-3.7609,-3.7799,-3.7801,-3.7803,-3.7784,0,0,0,0,0,0,-3.7083,-3.7107,-3.7131,-3.7208,-3.7234,-3.734,-3.7341,-3.7353,-3.7391,-3.7393,-3.7471,-3.7482,-3.7519,-3.7598,-3.7615,-3.7639,-3.7614,-3.7797,-3.78,-3.7802,-3.7783,-3.7785,-3.7787,0,0,0,0,0,-3.7075,-3.7121,-3.7132,-3.7152,-3.7266,-3.7341,-3.7356,-3.7398,-3.7393,-3.7418,-3.7463,-3.748,-3.7626,-3.7605,-3.7624,-3.7651,-3.7796,-3.7799,-3.7802,-3.7782,-3.7785,-3.7787,0,0,0,0,0,0,-3.7045,-3.7132,-3.7145,-3.7217,-3.7272,-3.7348,-3.7381,-3.74,-3.7457,-3.7456,-3.7506,-3.7523,-3.7591,-3.7629,-3.7604,-3.7717,-3.7711,-3.7718,-3.769,-3.7693,-3.7695,-3.7684,-3.762,0,0,0,0,0,-3.7046,-3.71,-3.7173,-3.723,-3.7256,-3.7314,-3.7348,-3.7376,-3.7434,-3.7457,-3.7508,-3.7564,-3.7623,-3.766,-3.7718,-3.7789,-3.7807,-3.7818,-3.782,-3.7821,-3.7826,-3.7867,-3.7872,-3.7814,-3.7814,-3.7814,0,0,-3.7051,-3.7105,-3.7135,-3.7225,-3.727,-3.7325,-3.7333,-3.739,-3.7431,-3.7466,-3.7537,-3.7576,-3.7642,-3.7714,-3.7748,-3.7747,-3.7846,-3.7825,-3.7825,-3.783,-3.787,-3.7876,-3.7881,-3.7816,-3.7816,-3.7815,0,0,-3.7086,-3.7132,-3.7184,-3.723,-3.7298,-3.7336,-3.7348,-3.7422,-3.745,-3.7521,-3.7549,-3.7599,-3.7699,-3.7745,-3.7781,-3.7835,-3.7852,-3.7852,-3.7863,-3.7902,-3.7907,-3.7911,-3.7929,-3.7936,-3.7858,-3.7858,-3.7858,0,-3.7082,-3.7165,-3.7209,-3.7265,-3.7304,-3.7338,-3.7391,-3.7433,-3.7517,-3.7543,-3.7541,-3.7667,-3.7714,-3.7797,-3.781,-3.7839,-3.7855,-3.7843,-3.7902,-3.7907,-3.7912,-3.793,-3.7937,-3.7857,-3.7857,-3.7857,-3.7857,0,-3.7157,-3.7214,-3.7248,-3.7328,-3.7371,-3.7425,-3.7478,-3.7516,-3.754,-3.7578,-3.7651,-3.7709,-3.7779,-3.7802,-3.7826,-3.7888,-3.7886,-3.7892,-3.7887,-3.7916,-3.7934,-3.7941,-3.7856,-3.7857,-3.7857,-3.7857,0,0,-3.7176,-3.7279,-3.7291,-3.7328,-3.7406,-3.7451,-3.7508,-3.7576,-3.7608,-3.7665,-3.7713,-3.7798,-3.7805,-3.7846,-3.7876,-3.791,-3.7949,-3.7913,-3.7916,-3.7917,-3.8021,-3.8014,-3.8022,-3.7961,-3.7963,-3.7964,-3.8015,0,-3.722,-3.7321,-3.7363,-3.7445,-3.7498,-3.7532,-3.7581,-3.7635,-3.7673,-3.7724,-3.7766,-3.7825,-3.783,-3.7855,-3.7891,-3.7936,-3.797,-3.7934,-3.8007,-3.8009,-3.7988,-3.8031,-3.8025,-3.807,-3.8023,-3.8024,-3.8025,0,-3.7285,-3.7342,-3.7429,-3.7501,-3.7525,-3.7568,-3.7634,-3.7683,-3.7745,-3.777,-3.7817,-3.7845,-3.7906,-3.7899,-3.7983,-3.7958,-3.7991,-3.8018,-3.8021,-3.8028,-3.8017,-3.8039,-3.8085,-3.8091,-3.8036,-3.8035,-3.8035,0,-3.7289,-3.7388,-3.7453,-3.7483,-3.7569,-3.7599,-3.7636,-3.7697,-3.7735,-3.7794,-3.7819,-3.7884,-3.7919,-3.7969,-3.8014,-3.8004,-3.8095,-3.8091,-3.8117,-3.8116,-3.8134,-3.8132,-3.8185,-3.8157,-3.8157,-3.8156,-3.8156,0,-3.7334,-3.7385,-3.7456,-3.7495,-3.7554,-3.7602,-3.766,-3.77,-3.7754,-3.7802,-3.7836,-3.7881,-3.7938,-3.7991,-3.8027,-3.8092,-3.8108,-3.813,-3.8139,-3.8126,-3.8123,-3.8148,-3.8145,-3.8158,-3.8158,-3.8157,-3.8157,0,-3.7348,-3.7397,-3.7469,-3.7545,-3.7565,-3.7605,-3.767,-3.771,-3.775,-3.7811,-3.7828,-3.7891,-3.7954,-3.8005,-3.8088,-3.8112,-3.818,-3.8191,-3.8159,-3.8163,-3.8187,-3.8183,-3.8256,-3.8268,-3.8232,-3.8233,-3.8233,0,-3.7372,-3.7413,-3.7492,-3.7527,-3.7564,-3.7619,-3.7658,-3.7707,-3.7747,-3.7821,-3.7852,-3.7918,-3.7974,-3.8074,-3.8127,-3.8191,-3.8203,-3.8224,-3.8213,-3.8199,-3.8202,-3.8199,-3.8203,-3.8225,-3.8225,-3.8225,-3.8225,0,-3.7411,-3.7433,-3.7488,-3.7552,-3.7597,-3.765,-3.7704,-3.773,-3.7789,-3.7832,-3.7897,-3.794,-3.8025,-3.809,-3.816,-3.8199,-3.8222,-3.8228,-3.8238,-3.8225,-3.8205,-3.8215,-3.8161,-3.8226,-3.8226,-3.8226,-3.8226,-3.8226,-3.7431,-3.7468,-3.7529,-3.759,-3.7635,-3.7684,-3.7726,-3.7771,-3.7825,-3.7898,-3.7924,-3.7991,-3.8053,-3.8149,-3.8188,-3.8242,-3.8244,-3.8257,-3.8261,-3.8263,-3.8261,-3.8197,-3.8255,-3.8255,-3.8255,-3.8255,-3.8255,0,-3.747,-3.7511,-3.7566,-3.764,-3.7687,-3.7704,-3.7765,-3.7803,-3.7861,-3.7917,-3.7971,-3.8046,-3.8109,-3.8168,-3.8234,-3.8266,-3.8278,-3.8282,-3.8279,-3.8288,-3.8256,-3.8241,-3.8271,-3.8271,-3.8271,-3.8271,-3.8271,-3.8271,-3.7496,-3.756,-3.759,-3.7677,-3.7718,-3.7783,-3.7816,-3.7862,-3.7907,-3.7989,-3.8041,-3.8079,-3.8136,-3.8207,-3.8266,-3.8282,-3.8304,-3.8305,-3.8323,-3.8292,-3.829,-3.8288,-3.8274,-3.831,-3.831,-3.8351,-3.8351,-3.8351]},{"header":{"parameterUnit":"m.s-1","parameterCategory":1,"la1":30.2991,"la2":30.254,"lo1":-89.0895,"lo2":-89.0444,"dy":0.0017,"dx":0.0017,"nx":28,"ny":28,"refTime":"2025-04-04T09:00:00:Z","depth":0,"parameterNumber":3,"parameterNumberName":"V-component_of_WINDS"},"data":[0,0,0,0,0,0,0,0,0,0,0,0,0,0,0,0,0,0,0,0,0,0,0,0,0,0,0,0,0,0,0,0,0,0,0,0,0,0,0,0,0,0,0,0,0,0,0,0,0,0,0,0,0,0,0,0,0,0,6.0286,6.0288,0,6.0436,6.0437,6.0439,6.0407,6.0404,6.0402,6.0399,6.0551,6.0558,6.0564,0,0,0,0,0,0,0,0,0,0,0,0,0,5.9975,5.998,6.0286,6.0288,6.029,6.0435,6.0437,6.0439,6.0408,6.0404,6.0401,6.0398,6.0549,6.0557,6.0565,0,0,0,0,0,0,0,0,0,0,0,0,0,6.0115,5.9982,6.0286,6.0292,6.0294,6.0435,6.0437,6.044,6.0408,6.0404,6.04,6.0396,6.0547,6.0556,6.0566,6.0711,0,0,6.0597,6.0601,0,0,0,0,0,0,0,0,6.0107,6.0127,6.0289,6.0291,6.0294,6.0398,6.0383,6.0531,6.0409,6.0365,6.0399,6.0394,6.0504,6.0517,6.0554,6.0718,6.0725,6.0597,6.0604,6.0608,6.0611,0,0,0,0,0,0,0,6.0098,6.012,6.0345,6.0291,6.0294,6.0287,6.0302,6.0411,6.0456,6.0368,6.0366,6.0384,6.0504,6.0545,6.0558,6.0727,6.0597,6.0606,6.0612,6.0616,6.1019,6.1024,0,0,0,0,0,0,6.0086,6.0112,6.034,6.035,6.0189,6.0296,6.0313,6.0369,6.0455,6.0464,6.0388,6.0382,6.053,6.0546,6.0563,6.074,6.0608,6.0617,6.0623,6.1015,6.102,6.1025,0,0,0,0,0,0,6.0079,6.0106,6.0334,6.0231,6.0259,6.0306,6.0369,6.0374,6.0414,6.0469,6.0477,6.0421,6.0527,6.0549,6.0675,6.0744,6.0622,6.0631,6.1009,6.1016,6.1023,6.1093,0,0,0,0,0,0,6.007,6.0104,6.0159,6.0232,6.0265,6.0444,6.0373,6.038,6.0432,6.0426,6.0502,6.0511,6.0525,6.066,6.0685,6.0756,6.0638,6.1003,6.1012,6.1021,6.1085,6.1102,6.1117,0,0,0,0,0,6.0059,6.0173,6.0162,6.019,6.0335,6.0448,6.0467,6.0481,6.0437,6.0494,6.0529,6.0508,6.0733,6.0673,6.0701,6.0776,6.0999,6.101,6.102,6.1078,6.1099,6.1116,0,0,0,0,0,0,6.0106,6.0182,6.0172,6.0312,6.0374,6.0442,6.0514,6.0502,6.0578,6.057,6.0584,6.0602,6.0731,6.0766,6.0698,6.0922,6.0859,6.0876,6.0894,6.0914,6.093,6.0919,6.0647,0,0,0,0,0,6.0133,6.0219,6.028,6.0398,6.043,6.0467,6.0517,6.0523,6.0587,6.0613,6.0658,6.0722,6.0807,6.0862,6.0943,6.109,6.1107,6.1155,6.1171,6.1183,6.1198,6.128,6.1303,6.106,6.106,6.106,0,0,6.0189,6.0241,6.0294,6.0409,6.0458,6.0547,6.0489,6.0585,6.0651,6.0628,6.075,6.0785,6.0857,6.0995,6.1058,6.1028,6.1269,6.1197,6.1207,6.1215,6.1293,6.1316,6.1337,6.1068,6.1066,6.1065,0,0,6.0337,6.0385,6.0489,6.0539,6.0614,6.0638,6.0663,6.0734,6.0757,6.088,6.0865,6.0944,6.1089,6.1142,6.1188,6.1358,6.1342,6.1384,6.1466,6.1546,6.1565,6.1582,6.1644,6.1666,6.1398,6.1398,6.1398,0,6.0398,6.0531,6.0544,6.0643,6.0694,6.0677,6.0784,6.0832,6.0929,6.0966,6.0931,6.1115,6.1162,6.1313,6.1354,6.1391,6.1422,6.1375,6.1561,6.1579,6.1595,6.1654,6.1677,6.1403,6.1402,6.1402,6.1401,0,6.0602,6.0695,6.077,6.0866,6.0926,6.1028,6.1057,6.1116,6.1117,6.1145,6.1272,6.1328,6.1421,6.1457,6.1458,6.1609,6.1588,6.1557,6.1495,6.1622,6.1679,6.1701,6.1409,6.1408,6.1406,6.1405,0,0,6.0784,6.0886,6.0914,6.0958,6.104,6.1112,6.1214,6.1305,6.1356,6.1424,6.1511,6.1635,6.1608,6.166,6.1667,6.1737,6.1871,6.1698,6.17,6.173,6.2042,6.2065,6.2091,6.186,6.1865,6.1868,6.2036,0,6.0941,6.112,6.1136,6.1297,6.1384,6.137,6.1459,6.1519,6.1548,6.1626,6.1658,6.1747,6.1703,6.1735,6.1803,6.184,6.1934,6.1828,6.1942,6.1946,6.1926,6.2121,6.2146,6.2301,6.2058,6.2062,6.2064,0,6.1147,6.1223,6.1393,6.1465,6.1502,6.1581,6.1667,6.1742,6.181,6.1827,6.1886,6.1884,6.199,6.1923,6.207,6.1997,6.2045,6.207,6.2076,6.2089,6.2014,6.2139,6.2351,6.2375,6.2099,6.2096,6.2094,0,6.1265,6.1409,6.153,6.1568,6.1653,6.171,6.1749,6.1813,6.1868,6.1943,6.1979,6.2065,6.2113,6.218,6.2202,6.2151,6.2348,6.2283,6.2366,6.2365,6.2408,6.2406,6.2632,6.2437,6.2437,6.2436,6.2436,0,6.1439,6.1545,6.1584,6.1659,6.1777,6.1794,6.191,6.1945,6.2003,6.2085,6.2078,6.2155,6.2179,6.226,6.2278,6.2398,6.2419,6.2435,6.2439,6.2437,6.2435,6.2469,6.246,6.2442,6.2441,6.244,6.2439,0,6.1591,6.1622,6.1753,6.1824,6.1844,6.1928,6.1989,6.2062,6.209,6.2193,6.2219,6.2263,6.2359,6.2387,6.2502,6.2514,6.2655,6.2648,6.2632,6.2632,6.2714,6.2707,6.2972,6.3008,6.2787,6.2789,6.2791,0,6.1701,6.1782,6.1862,6.1917,6.1958,6.2045,6.2101,6.2121,6.218,6.2265,6.2328,6.2422,6.2499,6.2653,6.2695,6.2784,6.278,6.2867,6.2793,6.2789,6.2783,6.2779,6.2788,6.2881,6.2883,6.2885,6.2886,0,6.1894,6.1905,6.1986,6.2074,6.2141,6.221,6.2277,6.2322,6.2352,6.2419,6.2517,6.2576,6.2694,6.2789,6.2879,6.2919,6.2909,6.2909,6.2933,6.2933,6.2921,6.293,6.2671,6.2903,6.2902,6.29,6.2899,6.2899,6.2029,6.2101,6.2169,6.226,6.2313,6.2376,6.2448,6.2485,6.2568,6.2666,6.2672,6.2779,6.2847,6.2966,6.3011,6.3095,6.307,6.3104,6.3114,6.3122,6.313,6.2906,6.3111,6.3111,6.3111,6.311,6.311,0,6.2223,6.2266,6.235,6.2444,6.2516,6.25,6.2574,6.2635,6.2729,6.2793,6.287,6.2983,6.3075,6.3125,6.3217,6.3275,6.3273,6.3299,6.3295,6.3305,6.3146,6.3117,6.3299,6.3299,6.3299,6.3299,6.3299,6.3299,6.2333,6.2454,6.2474,6.2622,6.2664,6.2769,6.2813,6.2871,6.2923,6.305,6.3127,6.3159,6.3218,6.3314,6.3398,6.3411,6.3446,6.3475,6.3485,6.3335,6.3316,6.3298,6.327,6.3482,6.3482,6.3637,6.3639,6.364]}]]